Regional Weather Roundup
Issued by NWS

Home | Current Version | Previous Version | Text Only | Print | Product List | Glossary Off
Versions: 1 2 3 4 5 6 7 8 9 10 11 12 13 14 15 16 17 18 19 20 21 22 23 24 25 26 27 28 29 30 31 32 33 34 35 36 37 38 39 40 41 42 43 44 45 46 47 48 49 50

000
ASUS43 KLMK 021810
RWRKY
KENTUCKY REGIONAL WEATHER ROUNDUP
NATIONAL WEATHER SERVICE LOUISVILLE KY
200 PM EDT WED SEP 02 2015

NOTE "FAIR" INDICATES FEW OR NO CLOUDS BELOW 12,000 FEET
WITH NO SIGNIFICANT WEATHER AND/OR OBSTRUCTIONS TO VISIBILITY.

KYZ001>023-026-027-061>063-070>075-021900-
WESTERN AND SOUTH CENTRAL KENTUCKY

CITY           SKY/WX    TMP DP  RH WIND       PRES   REMARKS
PADUCAH        PTSUNNY   91  67  44 VRB5      30.08F HX  94
HENDERSON      SUNNY     90  64  43 E5        30.07F HX  91
OWENSBORO      SUNNY     91  67  45 E3        30.09F HX  94
HOPKINSVILLE   SUNNY     89  67  46 VRB5      30.08F HX  92
BOWLING GREEN  SUNNY     91  63  39 E6        30.09F HX  92
GLASGOW        SUNNY     90  64  41 N5        30.10F HX  91
$$

KYZ024-025-028>034-038-045-046-053-021900-
NORTH CENTRAL KENTUCKY

CITY           SKY/WX    TMP DP  RH WIND       PRES   REMARKS
LOUISVILLE/SDF CLOUDY    88  65  46 S5        30.08F HX  90
LOUISVILLE/LOU SUNNY     90  65  43 VRB3      30.10F HX  92
FORT KNOX      MOSUNNY   87  67  51 NW5       30.09F
$$

KYZ035>037-039>044-047>052-055>060-089>105-021900-
NORTHEAST KENTUCKY

CITY           SKY/WX    TMP DP  RH WIND       PRES   REMARKS
LEXINGTON      SUNNY     86  65  49 VRB7      30.12F
COVINGTON      MOSUNNY   88  67  49 CALM      30.10F HX  91
FRANKFORT      SUNNY     86  66  51 W5        30.11F
$$

KYZ054-064>069-076>088-106>120-021900-
SOUTHEAST KENTUCKY

CITY           SKY/WX    TMP DP  RH WIND       PRES   REMARKS
JACKSON        MOSUNNY   86  65  49 VRB5      30.14F
LONDON         MOSUNNY   89  60  37 CALM      30.13F
SOMERSET       PTSUNNY   82  63  51 N3        30.13F
MIDDLESBORO    MOSUNNY   86  68  54 NE3       30.12F
MONTICELLO     PTCLDY    89  65  44 VRB6      30.14F HX  90
$$



USA.gov is the U.S. government's official web portal to all federal, state and local government web resources and services.